AO-07 1 07530U 74089B 20058.86686257 -.00000041 00000-0 29241-4 0 9994 2 07530 101.7859 29.2883 0011945 216.1608 172.2691 12.53642138 72376 UO-11 1 14781U 84021B 20058.78137511 .00000040 00000-0 10986-4 0 9996 2 14781 097.5965 076.2249 0007991 195.2943 164.8031 14.83145250915420 LO-19 1 20442U 90005G 20058.83821118 .00000010 00000-0 19868-4 0 9990 2 20442 98.6802 5.7895 0012719 117.9507 242.2966 14.32945747572776 HUBBLE 1 20580U 90037B 20058.86529529 .00000385 00000-0 12449-4 0 9995 2 20580 028.4704 331.0844 0002576 343.6304 074.5827 15.09344439439245 MET-2/21 1 22782U 93055A 20057.66858581 .00000009 00000-0 -56935-5 0 9997 2 22782 82.5508 322.3055 0022094 185.6996 236.8177 13.83825520337859 AO-27 1 22825U 93061C 20057.91761762 -.00000022 00000-0 95740-5 0 9996 2 22825 098.9219 057.5690 0008170 349.0560 011.0442 14.30078667377870 IO-26 1 22826U 93061D 20058.90943171 -.00000017 00000-0 11312-4 0 9999 2 22826 098.9161 058.5455 0008434 333.5685 026.5065 14.30413607378247 FO-29 1 24278U 96046B 20058.84307129 -.00000004 00000-0 35391-4 0 9997 2 24278 98.5681 183.2391 0349374 301.4260 55.3154 13.53096002162174 NOAA-15 1 25338U 98030A 20058.91975261 .00000006 00000-0 21336-4 0 9991 2 25338 098.7287 084.4703 0009788 219.5090 140.5377 14.25952654133229 GO-32 1 25397U 98043D 20058.82443704 -.00000006 00000-0 16869-4 0 9998 2 25397 98.7179 1.2299 0002005 51.4492 308.6866 14.23679962124030 ISS 1 25544U 98067A 20058.73882527 .00000405 00000-0 15459-4 0 9994 2 25544 51.6456 174.9554 0005233 324.5304 182.9040 15.49200309214899 NO-44 1 26931U 01043C 20058.77687516 -.00000057 00000-0 10036-4 0 9998 2 26931 67.0506 68.0062 0006420 264.0328 96.0041 14.30568253961313 SO-50 1 27607U 02058C 20058.83277476 -.00000044 00000-0 14541-4 0 9994 2 27607 64.5570 352.5825 0061608 205.0500 154.7611 14.75611846924535 CO-55 1 27844U 03031E 20058.90972301 .00000035 00000-0 35507-4 0 9990 2 27844 098.6846 068.3001 0010194 021.7408 338.4201 14.22223120864382 CO-57 1 27848U 03031J 20057.00428252 .00000023 00000-0 30200-4 0 9997 2 27848 98.6915 66.9683 0010364 38.5541 321.6375 14.21811716863991 RS-22 1 27939U 03042A 20058.94783100 .00000000 00000-0 86947-5 0 9995 2 27939 098.0714 195.3553 0012465 349.5507 010.5439 14.66838801877811 NOAA-18 1 28654U 05018A 20058.80142093 .00000083 00000-0 69851-4 0 9995 2 28654 099.0601 114.1180 0014457 179.1370 180.9828 14.12491703761290 CO-58 1 28895U 05043F 20058.81047949 .00000088 00000-0 25732-4 0 9990 2 28895 097.9903 198.3841 0015468 269.2826 090.6605 14.63740843764423 Falconsat-3 1 30776U 07006E 20058.91003251 .00001605 00000-0 44372-4 0 9998 2 30776 035.4340 266.9952 0003454 266.1571 093.8761 15.37274338719810 CO-65 1 32785U 08021C 20058.88023156 .00000152 00000-0 21985-4 0 9991 2 32785 097.5660 051.8089 0014089 135.2762 224.9594 14.88422883641429 AAUSAT2 1 32788U 08021F 20058.74911812 .00000252 00000-0 28009-4 0 9999 2 32788 097.4930 068.1678 0013148 070.4736 289.7904 14.94955629642771 DO-64 1 32789U 08021G 20058.55970617 .00000766 00000-0 54416-4 0 9998 2 32789 097.4333 105.1684 0011360 343.4265 016.6590 15.07479497645109 CO-66 1 32791U 08021J 20058.73588686 .00000352 00000-0 40920-4 0 9998 2 32791 97.5370 57.8064 0014781 109.4437 250.8381 14.90979782641963 RS-30 1 32953U 08025A 20058.89286622 .00000037 00000-0 19437-3 0 9992 2 32953 082.5080 346.6705 0018587 298.2871 061.6329 12.43094563533896 PRISM 1 33493U 09002B 20058.83083709 .00000984 00000-0 91031-4 0 9995 2 33493 098.1363 354.6055 0016471 064.5564 295.7359 14.96918619603150 NOAA-19 1 33591U 09005A 20058.86857212 .00000015 00000-0 33454-4 0 9998 2 33591 099.1958 061.3377 0014452 029.6065 330.5921 14.12397026569520 TISAT-1 1 36799U 10035E 20057.11895937 .00000290 00000-0 35318-4 0 9995 2 36799 98.1815 223.1488 0011725 344.3428 15.7425 14.91277919522384 JUGNU 1 37839U 11058B 20058.82355510 .00000305 00000-0 20702-4 0 9992 2 37839 019.9601 233.6686 0018905 248.8506 241.2108 14.12672658433121 SRMSAT 1 37841U 11058D 20058.87659885 .00000329 00000-0 35447-4 0 9990 2 37841 019.9720 295.3874 0011910 109.3641 342.3986 14.10650817432532 AO-71 1 37854U 11061E 20058.83165249 .00001235 00000-0 69820-4 0 9999 2 37854 101.7112 093.0005 0159040 030.7927 330.2498 15.07021909454811 HRBE 1 37855U 11061F 20058.77190120 .00001162 00000-0 65103-4 0 9998 2 37855 101.7248 090.1143 0171762 043.4377 318.0222 15.06035053454541 ALMASAT-1 1 38078U 12006B 20058.94161591 .00101629 79909-5 24073-3 0 9993 2 38078 069.4127 247.0731 0083238 221.0359 291.3661 15.90663430437499 HORYU-2 1 38340U 12025D 20057.81657297 .00000136 00000-0 27757-4 0 9999 2 38340 098.2968 108.5553 0012198 042.8084 317.4072 14.75813737408086 RS-40 1 38735U 12041C 20058.81990891 .00000032 00000-0 16143-3 0 9997 2 38735 082.4717 069.6447 0017851 045.7675 314.4867 12.42579864344113 BEESAT-3 1 39135U 13015F 20058.83137762 .00000645 00000-0 40890-4 0 9993 2 39135 64.8677 298.6292 0045287 263.6492 95.9476 15.17959578378811 BEESAT-2 1 39136U 13015G 20058.83406803 .00000357 00000-0 27666-4 0 9995 2 39136 064.8683 303.2329 0029598 279.1887 080.5891 15.17350319378336 ZACUBE-1 1 39417U 13066B 20058.78243326 .00000155 00000-0 25977-4 0 9995 2 39417 97.5636 62.9769 0057365 281.1424 78.3344 14.81227742338651 TRITON-1 1 39427U 13066M 20058.85148696 .00000239 00000-0 45600-4 0 9996 2 39427 097.7119 026.0152 0115124 072.1285 289.2438 14.67949641335431 GOMX-1 1 39430U 13066Q 20058.86964666 .00000134 00000-0 33124-4 0 9996 2 39430 097.7793 004.1495 0151015 172.4507 187.9023 14.59351785333675 LO-74 1 39440U 13066AA 20058.85219747 .00000187 00000-0 32973-4 0 9998 2 39440 097.6220 047.5259 0079693 340.4392 019.3765 14.75964602336264 AO-73 1 39444U 13066AE 20058.84344397 .00000181 00000-0 28688-4 0 9993 2 39444 097.5591 065.1970 0056440 273.4555 086.0205 14.82069842336984 SPROUT 1 39770U 14029E 20058.84238471 .00000484 00000-0 59349-4 0 9994 2 39770 97.8903 165.6662 0008390 338.0941 21.9903 14.87625351312613 DUCHIFAT-1 1 40021U 14033M 20058.73903369 .00000384 00000-0 44864-4 0 9998 2 40021 097.9375 349.3446 0011617 296.2918 063.7105 14.90821735309391 NANOSATCBR1 1 40024U 14033Q 20057.69330260 .00000249 00000-0 31759-4 0 9998 2 40024 97.9239 345.0226 0011052 304.7000 55.3175 14.90002823309115 EO-79 1 40025U 14033R 20058.71677559 .00000214 00000-0 28707-4 0 9999 2 40025 97.9132 343.0644 0011310 308.5209 51.4993 14.89077223309120 DTUSAT-2 1 40030U 14033W 20058.71597584 .00000203 00000-0 27844-4 0 9993 2 40030 097.9026 340.7624 0010727 304.2900 055.7301 14.88660490308539 EO-80 1 40032U 14033Y 20058.79820280 .00000224 00000-0 30046-4 0 9996 2 40032 97.9033 340.8460 0010688 304.7220 55.2989 14.88606815309049 ANTELSAT 1 40034U 14033AA 20058.36132200 .00000174 00000-0 33083-4 0 9997 2 40034 97.7288 279.2802 0058692 359.0452 1.0635 14.74210522306048 VELOX-1 1 40057U 14034E 20058.93543818 .00000264 00000-0 44399-4 0 9999 2 40057 098.2608 192.9911 0012017 135.5291 224.6887 14.77808193305317 DAURIA DX 1 1 40071U 14037C 20058.80829654 .00000068 00000-0 16218-4 0 9990 2 40071 98.4501 231.1270 0009457 126.2135 233.9955 14.81336926304873 UKUBE-1 1 40074U 14037F 20058.73811558 .00000259 00000-0 38208-4 0 9994 2 40074 098.4530 240.4862 0005676 108.9953 251.1866 14.84200766305332 HODOYOSHI-1 1 40299U 14070B 20058.75840686 .00000461 00000-0 21952-4 0 9999 2 40299 97.3315 138.0307 0011840 219.4773 239.0060 15.23941953294954 CHUBUSAT-1 1 40300U 14070C 20058.94143417 .00000565 00000-0 27376-4 0 9992 2 40300 097.3006 131.3511 0018399 239.8253 294.0746 15.22373786294697 QSAT-EOS 1 40301U 14070D 20058.82923209 .00001386 00000-0 55294-4 0 9997 2 40301 97.3029 135.7720 0024226 217.0376 253.4224 15.26610737295058 FIREBIRD FU3 1 40377U 15003B 20058.79118605 .00001537 00000-0 63304-4 0 9998 2 40377 099.1099 096.3006 0124089 323.9303 035.3600 15.19661254280491 FIREBIRD FU4 1 40378U 15003C 20058.84240097 .00001578 00000-0 64772-4 0 9991 2 40378 99.1102 96.4540 0124258 323.6371 35.6462 15.19677493280515 GRIFEX 1 40379U 15003D 20058.81310331 .00001206 00000-0 54747-4 0 9997 2 40379 99.1167 88.9628 0133288 346.6959 13.0766 15.16122920280086 NO-84 1 40654U 15025D 20057.31597336 .00010419 00000-0 13359-3 0 8643 2 40654 54.9889 96.7636 0120070 256.9075 101.8394 15.51694876151606 DEORBITSAIL 1 40719U 15032E 20058.80159411 .00000293 00000-0 48796-4 0 9998 2 40719 97.8838 310.0886 0015592 201.4648 158.5910 14.76920380249766 NUDT-PHONESAT 1 40900U 15049B 20058.81838341 .00001885 00000-0 81424-4 0 9998 2 40900 97.4344 70.7409 0013125 20.9463 104.0154 15.23671986246341 XW-2A 1 40903U 15049E 20058.93272284 .00001688 00000-0 40649-4 0 9997 2 40903 097.3042 107.7351 0011821 309.4658 174.3957 15.42677722249436 XW-2C 1 40906U 15049H 20058.81892411 .00000418 00000-0 25209-4 0 9992 2 40906 97.4758 61.8186 0015909 43.1880 34.9497 15.15942653245490 XW-2D 1 40907U 15049J 20058.83019468 .00000373 00000-0 22726-4 0 9999 2 40907 97.4728 61.5204 0015234 40.7737 43.3062 15.16158659245512 LILACSAT-2 1 40908U 15049K 20058.87590692 .00000487 00000-0 30378-4 0 9995 2 40908 97.4883 60.0713 0017140 48.4894 69.2669 15.13965478245265 XW-2E 1 40909U 15049L 20058.82461848 .00000826 00000-0 43627-4 0 9999 2 40909 97.4631 64.8044 0014348 34.4463 48.0956 15.18218745245740 XW-2F 1 40910U 15049M 20058.81304691 .00000988 00000-0 52185-4 0 9990 2 40910 97.4673 63.9073 0015497 32.3584 91.7842 15.17730930245559 XW-2B 1 40911U 15049N 20058.81589414 .00000695 00000-0 39500-4 0 9990 2 40911 97.4747 62.1940 0015195 41.7019 81.2469 15.16088371245405 DCBB 1 40912U 15049P 20058.84836985 .00000885 00000-0 44102-4 0 9997 2 40912 97.4497 67.9657 0014960 12.5920 109.1429 15.20096578245917 TW-1C 1 40926U 15051B 20058.93515135 .00013962 00000-0 16260-3 0 9999 2 40926 097.1008 110.2110 0008158 134.3629 350.0773 15.61754274249758 TW-1A 1 40928U 15051D 20058.86217421 .00002245 00000-0 54504-4 0 9996 2 40928 97.1207 89.3527 0009358 221.0873 312.2499 15.42026378248320 IO-86 1 40931U 15052B 20055.63210036 .00001574 00000-0 12997-3 0 9991 2 40931 5.9956 67.1789 0015703 110.4614 16.6669 14.76634516238408 LQSat 1 40958U 15057A 20058.80882530 -.00000009 00000-0 62333-5 0 9995 2 40958 097.8670 125.7102 0019054 142.2804 217.9745 14.73109300236221 AO-85 1 40967U 15058D 20057.31582522 .00000062 00000-0 26281-4 0 9640 2 40967 64.7753 111.2794 0172549 116.3408 245.5516 14.76075778145028 ATHENOXAT-1 1 41168U 15077C 20057.38817686 .00001792 00000-0 58578-4 0 9997 2 41168 14.9874 163.5084 0011583 8.1273 351.9234 15.14132046232338 ChubuSat-2 1 41338U 16012B 20058.85862204 .00000285 00000-0 15411-4 0 9990 2 41338 031.0042 329.3978 0013612 101.4702 258.7463 15.00249707221117 ChubuSat-3 1 41339U 16012C 20058.79897910 .00000309 00000-0 17202-4 0 9993 2 41339 31.0134 327.5477 0013270 107.6832 252.5286 15.00418045221103 Horyu-4 1 41340U 16012D 20058.87727176 .00000414 00000-0 24645-4 0 9996 2 41340 031.0056 315.9396 0013825 132.1696 228.0116 15.01426390221244 OUFTI-1 1 41458U 16025C 20058.84166952 .00002074 00000-0 10790-3 0 9995 2 41458 98.0969 163.6663 0163829 221.7829 137.0794 15.06488235210822 e-st@r-II 1 41459U 16025D 20058.85599124 .00000765 00000-0 43126-4 0 9993 2 41459 098.0945 163.1789 0165009 223.3995 135.4121 15.06074748210797 AAUSAT4 1 41460U 16025E 20058.82585264 .00003179 00000-0 15968-3 0 9996 2 41460 098.0928 165.1018 0154752 213.7054 145.4253 15.08243244210966 LO-87 1 41557U 16033B 20058.82946301 .00000911 00000-0 36259-4 0 9993 2 41557 97.4053 149.7981 0015134 116.8871 243.3917 15.27762470208883 NuSat2 1 41558U 16033C 20058.80642163 .00001052 00000-0 39097-4 0 9991 2 41558 97.4096 151.6752 0014177 115.2387 245.0324 15.29716060208977 Lapan A3 1 41603U 16040E 20058.86692178 .00000127 00000-0 90494-5 0 9998 2 41603 97.3246 115.7782 0012016 225.7072 252.0796 15.19801071204340 Swayam 1 41607U 16040J 20058.44040628 .00001133 00000-0 49711-4 0 9996 2 41607 097.3329 120.3644 0012347 211.9597 148.0892 15.23924959204517 Pratham 1 41783U 16059A 20058.40496852 .00000030 00000-0 15153-4 0 9999 2 41783 98.0327 116.9007 0032410 307.2005 52.6240 14.63038975182641 AlSat 1N 1 41789U 16059G 20058.72310440 .00000071 00000-0 22396-4 0 9990 2 41789 98.0360 119.7734 0027007 294.1873 65.6498 14.64298930182824 ScatSat 1 41790U 16059H 20058.91859389 .00000015 00000-0 14701-4 0 9992 2 41790 098.1770 102.4092 0004393 262.7451 097.3241 14.50901995181198 TY-1 1 41844U 16066D 20058.86001250 .00000760 00000-0 33602-4 0 9998 2 41844 97.4047 68.2676 0015588 20.1527 100.5246 15.24666871183414 Pegasus-1 1 41846U 16066F 20057.93940192 .00000191 00000-0 39640-4 0 9990 2 41846 98.6783 106.7439 0366822 205.0394 153.2607 14.37708369172941 CAS-2T 1 41847U 16066G 20058.85563180 .00000052 00000-0 18449-4 0 9991 2 41847 98.6712 108.1692 0365565 198.2696 160.5069 14.38043579173526 EO-88 1 42017U 17008BX 20056.85430371 .00001391 00000-0 56613-4 0 9993 2 42017 097.3731 126.0102 0006366 015.5767 344.5667 15.26172075168376 nSIGHT1 1 42726U 98067MF 20057.10450992 .00085546 13836-4 28173-3 0 9992 2 42726 51.6290 84.2991 0005600 56.2872 303.8667 15.90510277157687 CAS-4B 1 42759U 17034B 20058.80630677 .00000174 00000-0 24127-4 0 9996 2 42759 43.0184 274.9519 0010599 47.6785 54.2846 15.09752034149242 CAS-4A 1 42761U 17034D 20058.87260552 .00000075 00000-0 18069-4 0 9995 2 42761 43.0202 273.9591 0011235 49.4490 325.1029 15.09829650149259 UCLSat 1 42765U 17036A 20058.80691046 .00000927 00000-0 41970-4 0 9993 2 42765 097.3168 115.9438 0012774 060.7767 299.4746 15.23269451149738 NIUSat 1 42766U 17036B 20058.79238134 .00000669 00000-0 32623-4 0 9995 2 42766 097.3164 113.6996 0016799 053.1756 307.1019 15.21519822148865 LituanicaSAT 2 1 42768U 17036D 20058.81745121 .00001535 00000-0 66750-4 0 9990 2 42768 097.3217 115.7722 0015952 050.8787 309.3866 15.23643695148990 Aalto 1 1 42775U 17036L 20058.78615277 .00000541 00000-0 26886-4 0 9994 2 42775 97.3146 114.0438 0015183 53.1185 307.1440 15.21676176148845 URSA MAIOR 1 42776U 17036M 20058.78812474 .00000606 00000-0 29618-4 0 9991 2 42776 097.3158 114.2845 0014993 053.0500 307.2107 15.21841266148857 Max Valier Sat 1 42778U 17036P 20058.79677981 .00000637 00000-0 30448-4 0 9993 2 42778 97.3207 115.4134 0013571 56.9668 303.2870 15.22420023148898 Pegasus 1 42784U 17036V 20058.81013508 .00000815 00000-0 37546-4 0 9996 2 42784 097.3173 115.6793 0013359 061.3393 298.9185 15.22975949148935 NUDATSat 1 42787U 17036Y 20058.95795433 .00001456 00000-0 62588-4 0 9994 2 42787 097.3219 116.9757 0013169 051.3210 308.9205 15.24169413148869 SUCHAI 1 1 42788U 17036Z 20058.08449945 .00001164 00000-0 51616-4 0 9999 2 42788 97.3181 115.4620 0012907 62.6120 297.6428 15.23479034148925 SKCUBE 1 42789U 17036AA 20057.46286641 .00001096 00000-0 48961-4 0 9996 2 42789 097.3177 114.7406 0012839 064.7802 295.4764 15.23339487148745 VZLUSAT 1 1 42790U 17036AB 20058.81485964 .00001241 00000-0 53794-4 0 9999 2 42790 097.3196 116.8325 0012232 059.2185 301.0255 15.24159375148994 VENTA 1 1 42791U 17036AC 20058.81552856 .00000889 00000-0 40307-4 0 9998 2 42791 097.3172 116.1067 0012431 061.1722 299.0762 15.23334137148949 Robusta 1B 1 42792U 17036AD 20058.80959741 .00000937 00000-0 42083-4 0 9999 2 42792 097.3176 116.2714 0012341 061.2175 299.0300 15.23525451148979 D-SAT 1 42794U 17036AF 20058.86247786 .00000154 00000-0 18706-4 0 9992 2 42794 097.5082 096.9092 0126605 014.8105 345.6768 14.91225479146210 TechnoSat 1 42829U 17042E 20057.54974439 .00000188 00000-0 24302-4 0 9990 2 42829 097.5364 304.4760 0012901 301.5436 058.4522 14.91060500142616 QIKCOM-1 1 42983U 98067NF 20058.49988959 .00002871 00000-0 40173-4 0 9999 2 42983 51.6387 144.4440 0004041 6.3131 353.7912 15.60630197132950 AO-91 1 43017U 17073E 20058.83323903 .00000564 00000-0 48801-4 0 9999 2 43017 097.7265 335.3212 0258556 050.9448 311.4464 14.78810320122814 EcAMSat 1 43019U 98067NG 20057.46880727 .00006068 00000-0 67549-4 0 9998 2 43019 51.6402 139.1279 0004180 347.9426 12.1468 15.64414928215258 PICSAT 1 43132U 18004X 20057.97756083 .00001112 00000-0 48638-4 0 9993 2 43132 097.4589 129.9602 0011262 086.9477 273.3049 15.24136832118079 AO-92 1 43137U 18004AC 20057.86533475 .00000880 00000-0 39368-4 0 9995 2 43137 97.4576 129.7334 0010887 88.9498 271.2986 15.23904296118047 TianYi 2 1 43155U 18008A 20058.85971679 .00000967 00000-0 60699-4 0 9998 2 43155 97.4595 130.7176 0018124 164.1161 287.1384 15.11477892116219 Zhou Enlai 1 43156U 18008B 20058.85990479 .00000988 00000-0 62800-4 0 9997 2 43156 97.4639 130.5780 0015497 161.7837 309.9051 15.11005269116175 TianYi 6 1 43158U 18008D 20058.84431693 .00000388 00000-0 27308-4 0 9994 2 43158 97.4604 129.7572 0014396 161.1589 310.7627 15.10551048116127 S-Net G 1 43186U 18014G 20058.80936068 .00000154 00000-0 18545-4 0 9998 2 43186 097.7003 328.4075 0009969 230.6669 129.3669 14.96754449113143 S-Net H 1 43187U 18014H 20058.80917689 .00000147 00000-0 17955-4 0 9993 2 43187 97.7001 328.3889 0009969 230.6023 129.4316 14.96754409113144 S-Net J 1 43188U 18014J 20058.74217459 .00000136 00000-0 16985-4 0 9995 2 43188 97.7003 328.3484 0009967 231.0290 129.0045 14.96754081113137 S-Net K 1 43189U 18014K 20058.80940911 .00000153 00000-0 18411-4 0 9994 2 43189 097.7001 328.3851 0009956 230.6212 129.4128 14.96753637111692 FMN 1 1 43192U 18015A 20058.86716410 .00001978 00000-0 81474-4 0 9995 2 43192 097.4254 189.0480 0017338 116.6710 002.9821 15.25176264115048 Shaonian Xing 1 43199U 18015H 20058.81670119 .00001495 00000-0 61733-4 0 9992 2 43199 97.4048 187.5545 0018285 126.9184 26.8593 15.25450649115090 1KUNS-PF 1 43466U 98067NP 20058.55547095 .00048481 00000-0 24242-3 0 9990 2 43466 51.6307 114.5285 0003139 25.9978 334.1181 15.81306301102854 UBAKUSAT 1 43467U 98067NQ 20058.72857647 .00016203 00000-0 13626-3 0 9998 2 43467 051.6341 129.3221 0002138 348.4198 011.6749 15.70041777102681 Irazu 1 43468U 98067NR 20058.81025499 .00853746 43560-3 76502-3 0 9995 2 43468 051.6240 094.9126 0006870 042.2043 317.9499 16.12137453203125 EnduroSat One 1 43551U 98067NZ 20058.77623235 .00023706 00000-0 17720-3 0 9996 2 43551 051.6334 129.6253 0005475 028.9108 331.2193 15.72560736092914 EQUISat 1 43552U 98067PA 20057.50731950 .00016411 00000-0 14450-3 0 9993 2 43552 51.6365 141.4951 0005636 22.4330 337.6912 15.68896895 92609 UiTMSat 1 1 43589U 98067PD 20057.42001387 .00019795 00000-0 16414-3 0 9998 2 43589 051.6332 141.5269 0005128 028.2290 331.8984 15.70207037088338 Maya 1 1 43590U 98067PE 20057.47676199 .00020626 00000-0 17077-3 0 9995 2 43590 051.6334 141.1645 0005246 029.0377 331.0911 15.70212621088272 Bhutan 1 1 43591U 98067PF 20057.58430382 .00022300 00000-0 18355-3 0 9991 2 43591 051.6343 140.4331 0005351 029.5124 330.6175 15.70297505088292 SiriusSat 1 1 43595U 98067PG 20058.76606469 .00018958 00000-0 16734-3 0 9990 2 43595 51.6335 137.7859 0003499 3.0576 357.0442 15.68722486 87613 SiriusSat 2 1 43596U 98067PH 20058.75693703 .00017910 00000-0 15893-3 0 9999 2 43596 51.6343 138.5389 0003921 1.4351 358.6656 15.68637228 87605 Tanusha-3 1 43597U 98067PJ 20058.70048705 .00032276 00000-0 22857-3 0 9991 2 43597 51.6321 131.8510 0003874 17.4214 58.4557 15.73655893 87683 SurfSat 1 43614U 18070B 20058.86171221 .00001887 00000-0 49436-4 0 9991 2 43614 093.0285 108.8718 0017507 051.9405 308.3425 15.38654841081474 CP-7 DAVE 1 43615U 18070C 20056.86740998 .00002183 00000-0 57356-4 0 9993 2 43615 093.0291 108.0423 0017872 058.0766 302.2223 15.38530403081162 ELFIN-B 1 43616U 18070D 20058.81725557 .00002619 00000-0 66331-4 0 9992 2 43616 093.0249 108.7644 0018203 053.6672 306.6260 15.39643257081492 ELFIN-A 1 43617U 18070E 20058.86214961 .00002820 00000-0 71109-4 0 9993 2 43617 093.0304 109.2026 0017417 050.8209 309.4589 15.39779401081504 STARS-Me Mother 1 43640U 98067PQ 20058.53287579 .00009537 00000-0 10867-3 0 9997 2 43640 51.6357 149.8153 0004825 338.3913 21.6877 15.63003621 79369 CubeBel 1 1 43666U 18083E 20058.85053700 .00000809 00000-0 43007-4 0 9993 2 43666 97.4998 86.3529 0015891 31.1902 141.5315 15.18039842 73838 Changshagaoxin 1 43669U 18083H 20058.81068684 .00000551 00000-0 31136-4 0 9993 2 43669 97.4879 84.8441 0011474 26.6439 333.5382 15.17126169 73758 Ten-Koh 1 43677U 18084G 20058.83749265 .00000015 00000-0 74503-5 0 9997 2 43677 097.8691 176.2665 0016616 158.8191 201.3718 14.90250783072465 PO-101 1 43678U 18084H 20058.78821693 -.00000094 00000-0 -36258-5 0 9992 2 43678 97.8691 177.3014 0009908 174.8265 185.3031 14.91607510 72523 IRVINE 01 1 43693U 18088D 20058.55696441 .00001852 00000-0 78219-4 0 9992 2 43693 85.0381 150.3963 0016896 346.4884 13.5903 15.22390174 71975 QO-100 1 43700U 18090A 20058.51044792 .00000141 00000-0 00000-0 0 9995 2 43700 000.0174 154.3130 0002289 212.1567 359.9067 01.00274647004598 Reaktor Hello World 1 43743U 18096AA 20058.85473587 .00001142 00000-0 45536-4 0 9992 2 43743 97.4317 133.2523 0018762 154.1680 317.7115 15.27145774 69511 MinXSS-2 1 43758U 18099A 20058.40630462 .00000552 00000-0 54851-4 0 9993 2 43758 097.7174 132.1080 0015417 195.0920 164.9843 14.95581579067353 AO-95 1 43770U 18099N 20058.39945683 .00000324 00000-0 34957-4 0 9991 2 43770 97.7171 131.6616 0014179 202.3713 157.6891 14.94914811 67326 RANGE-B 1 43772U 18099Q 20058.29907498 .00000337 00000-0 35996-4 0 9992 2 43772 097.7237 131.9502 0013991 189.3417 170.7546 14.95082717067307 RANGE-A 1 43773U 18099R 20058.25532622 -.00000094 00000-0 -34036-5 0 9999 2 43773 097.7116 131.2434 0013393 189.6707 170.4258 14.94912568067292 MOVE-II 1 43780U 18099Y 20057.17300370 .00000088 00000-0 13197-4 0 9995 2 43780 097.7174 130.5969 0013075 203.7854 156.2764 14.95290021067138 SNUSat 2 1 43782U 18099AA 20058.51466132 -.00000205 00000-0 -13436-4 0 9994 2 43782 97.7168 131.9469 0012587 188.0015 172.1007 14.95190003 67343 SnugLite 1 43784U 18099AC 20057.01783085 .00000691 00000-0 67913-4 0 9995 2 43784 97.7137 130.3318 0014676 201.4990 158.5617 14.95281216 67139 ITASat 1 1 43786U 18099AE 20058.82344834 .00000494 00000-0 49999-4 0 9997 2 43786 97.7187 132.4189 0014901 194.3926 165.6872 14.95267199 67401 EAGLET 1 1 43790U 18099AJ 20057.17102163 -.00000004 00000-0 48090-5 0 9996 2 43790 097.7181 130.9967 0012879 204.7843 155.2761 14.95646669066867 ESEO 1 43792U 18099AL 20058.44562756 -.00000384 00000-0 -29360-4 0 9997 2 43792 097.7152 132.1280 0012807 197.3115 162.7671 14.95571936067115 CSIM 1 43793U 18099AM 20057.91840306 -.00000014 00000-0 38872-5 0 9997 2 43793 097.7137 131.5345 0012907 196.4298 163.6507 14.95933247067011 Astrocast 0.1 1 43798U 18099AS 20058.51118603 -.00000333 00000-0 -24608-4 0 9993 2 43798 97.7170 132.3950 0012456 179.4174 180.7063 14.95824971 67365 JO-97 1 43803U 18099AX 20058.85049163 -.00000179 00000-0 -10943-4 0 9996 2 43803 097.7145 132.2924 0014851 195.5790 164.4975 14.95427381067408 Suomi 100 1 43804U 18099AY 20057.64618890 -.00000190 00000-0 -11980-4 0 9997 2 43804 097.7146 131.0995 0014791 199.7620 160.3030 14.95419991067232 Al Farabi 2 1 43805U 18099AZ 20058.83307101 .00000258 00000-0 28497-4 0 9994 2 43805 97.7152 132.3234 0014906 195.2162 164.8612 14.95523466 67418 PWSat 2 1 43814U 18099BJ 20058.92925668 .00019577 00000-0 12920-2 0 9994 2 43814 097.7842 137.8898 0012635 183.7379 176.3599 15.07420674067041 CHOMPTT 1 43855U 18104G 20058.91369887 .00000959 00000-0 39086-4 0 9998 2 43855 085.0351 248.3110 0019953 096.9362 263.4150 15.22776392066704 ISAT 1 43879U 18111D 20058.81604137 .00000572 00000-0 55872-4 0 9993 2 43879 97.7088 327.9903 0011711 252.7217 107.2723 14.96158911 61938 UWE-4 1 43880U 18111E 20057.67712458 .00000361 00000-0 36990-4 0 9990 2 43880 097.7099 327.0812 0010930 257.8121 102.1876 14.96393085061772 Sparrow 1 43881U 18111F 20058.80032020 .00000005 00000-0 55175-5 0 9999 2 43881 097.7102 328.2430 0011190 252.6984 107.3014 14.96448768063947 Lume 1 1 43908U 18111AJ 20058.74289868 .00000779 00000-0 34062-4 0 9995 2 43908 97.2757 321.8863 0021554 169.9879 190.1793 15.24810498 65159 FO-98 1 43933U 19003B 20058.90652170 .00000513 00000-0 25387-4 0 9998 2 43933 97.2464 112.7888 0016094 270.9472 262.3210 15.21952781 61714 FO-99 1 43937U 19003F 20058.90691272 .00001040 00000-0 45390-4 0 9990 2 43937 97.2424 113.7269 0022599 253.5157 280.0535 15.24115482 61799 Delphini 1 1 44030U 98067PW 20057.47202752 .00012580 00000-0 14505-3 0 9998 2 44030 051.6355 161.4918 0004466 016.0491 344.0644 15.62348162060985 MYSat 1 1 44045U 18092F 20058.81015137 .00002425 00000-0 78701-4 0 9998 2 44045 51.6447 219.2890 0010631 282.3369 77.6402 15.36091431 58283 AstroCast 0.2 1 44083U 19018F 20058.80411293 .00000595 00000-0 29530-4 0 9993 2 44083 097.4357 121.3052 0012878 192.7276 167.3636 15.21450711050554 AISTechSat 3 1 44103U 19018AB 20058.73342795 .00000669 00000-0 31445-4 0 9998 2 44103 97.4229 121.3368 0012556 209.9396 245.2287 15.22984317 50588 AISat 1 1 44104U 19018AC 20058.45033514 .00000626 00000-0 22757-4 0 9993 2 44104 97.4768 127.3678 0056962 246.2809 113.2449 15.30859447 50824 Raavana-1 1 44329U 98067QE 20058.72232112 .00007541 00000-0 11432-3 0 9998 2 44329 51.6399 168.4122 0006348 312.4329 47.6125 15.55709237 39759 Uguisu 1 44330U 98067QF 20058.34440074 .00007337 00000-0 11169-3 0 9996 2 44330 051.6394 170.3854 0006306 309.2445 050.7986 15.55643644039677 NepaliSat-1 1 44331U 98067QG 20058.71678211 .00007634 00000-0 11551-3 0 9999 2 44331 51.6395 168.3750 0006404 313.5483 46.4976 15.55740349 39749 Prox-1 1 44339U 19036A 20058.27657276 .00000847 00000-0 15183-3 0 9999 2 44339 024.0027 091.3692 0011099 020.6940 339.4042 14.52855850035940 Oculus-ASR 1 44348U 19036K 20058.98854773 .00006359 00000-0 92733-4 0 9999 2 44348 028.5198 026.7055 0376188 211.0897 146.6911 15.00378633037187 Armadillo 1 44352U 19036P 20058.97286125 .00008394 00000-0 12417-3 0 9994 2 44352 028.5350 024.9044 0367531 213.4899 144.1941 15.02159597037151 NO-104 1 44354U 19036R 20057.26290528 .00006425 00000-0 92881-4 0 9996 2 44354 028.5328 036.2758 0372972 194.6339 164.3192 15.01248448036930 NO-103 1 44355U 19036S 20057.93599930 .00011711 00000-0 16875-3 0 9992 2 44355 028.5335 028.1041 0359336 207.9506 150.1349 15.04654979037073 CP9 1 44360U 19036X 20058.92803451 .00019560 00000-0 24946-3 0 9992 2 44360 028.5190 014.2198 0349057 231.0676 125.8257 15.09544483037173 Move-IIb 1 44398U 19038N 20058.84919350 .00000884 00000-0 54795-4 0 9997 2 44398 097.5232 021.6015 0026165 145.2787 215.0158 15.12070419035861 SONATE 1 44400U 19038Q 20058.86156631 .00000317 00000-0 22242-4 0 9991 2 44400 97.5259 21.6325 0026182 143.7734 216.5275 15.11841548 35866 BeeSat 9 1 44412U 19038AC 20058.83215796 .00000685 00000-0 43323-4 0 9990 2 44412 097.5248 021.6542 0023591 148.9350 211.3281 15.12106900035553 JAISAT-1 1 44419U 19038F 20058.88773219 .00000610 00000-0 38515-4 0 9996 2 44419 097.5250 021.8896 0022455 148.1017 212.1579 15.12589004035882 LightSail-2 1 44420U 19036AC 20058.43277904 .00005765 00000-0 12737-2 0 9999 2 44420 024.0111 088.7737 0018810 023.4121 336.7225 14.54577090034137 Taurus 1 1 44530U 19059C 20058.76840234 .00000992 00000-0 29487-3 0 9992 2 44530 98.5753 138.7925 0017692 130.9672 229.3045 14.45290642 24359 MO-106 1 44830U 19084G 20058.73444986 .00030057 00000-0 25417-3 0 9998 2 44830 096.9924 287.5114 0034561 302.0750 057.7158 15.68876927013044 TRSI-Sat 1 44831U 19084H 20058.54230948 .00029173 00000-0 24704-3 0 9994 2 44831 096.9933 287.3327 0034491 302.0928 057.6988 15.68851930013023 MO-105 1 44832U 19084J 20058.72226133 .00031442 00000-0 26191-3 0 9990 2 44832 96.9930 287.5330 0033935 301.0356 58.7576 15.69261226 13044 Duchifat 3 1 44854U 19089C 20058.32251223 .00000325 00000-0 32779-4 0 9999 2 44854 36.9692 35.0718 0008739 249.1979 110.7816 14.98979867 11615 OPS-SAT 1 44878U 19092F 20058.63400221 -.00000066 00000-0 00000-0 0 9998 2 44878 097.4645 243.8112 0014713 026.7341 333.4708 15.15277953010754 FloripaSat 1 1 44885U 19093G 20058.93341061 .00000206 00000-0 32784-4 0 9999 2 44885 097.9676 135.7378 0015777 051.7578 308.5036 14.81974401010330 SwampSat-2 1 45115U 19071E 20058.86642190 .00008111 00000-0 25979-3 0 9991 2 45115 51.6423 177.5703 0013241 21.2036 338.9492 15.33200997 4140 HuskySat-1 1 45119U 19071J 20058.60299922 .00001408 00000-0 54836-4 0 9995 2 45119 051.6436 178.8112 0012506 017.4042 342.7366 15.33165786004119 QARMAN 1 45257U 98067RA 20058.83774715 .00003608 00000-0 71353-4 0 9990 2 45257 051.6419 174.4282 0008229 314.9584 045.0737 15.49921263001340 AztechSat-1 1 45258U 98067RB 20058.77332360 .00002964 00000-0 60125-4 0 9999 2 45258 051.6416 174.7475 0006098 295.9293 064.1067 15.49888807001302 /EX